Location: Windsor
(43.2292°N, 89.3015°W)
Time: 09:59:49
(UTC+00:00)

Tiros 1 - Pass Details

Date: 05 June 2022
Orbit: 629 x 663 km, 48.4° (Epoch: 04 July)

Event Time Altitude Azimuth Distance (km) Brightness Sun altitude
Rises 06:32:28 0° 289° (WNW) 2,916 10.6 -23.7°
Reaches altitude 10° 06:34:51 10° 295° (WNW) 2,009 9.8 -23.6°
Maximum altitude 06:39:21 49° 11° (N) 819 8.0 -23.5°
Drops below altitude 10° 06:43:51 10° 86° (E) 2,019 9.9 -23.3°
Sets 06:46:15 0° 92° (E) 2,931 10.7 -23.2°
